Weather History for Craig, CO

Change the Weather History Date:

Tuesday, March 18, 2014

  Actual Average Record
Temperature  
Mean Temperature 29 °F 34 °F  
Max Temperature 37 °F 47 °F 68 °F (2007)
Min Temperature 21 °F 20 °F 6 °F (2002)
Degree Days  
Heating Degree Days 36 32  
Month to date heating degree days 518 639  
Since 1 July heating degree days 6706 6965  
Cooling Degree Days 0 0  
Month to date cooling degree days 0 0  
Year to date cooling degree days 0 0  
Moisture  
Dew Point 20 °F    
Average Humidity 66    
Maximum Humidity 92    
Minimum Humidity 40    
Precipitation  
Precipitation T in 0.04 in 0.50 in (1998)
Month to date precipitation 0.21 0.66  
Year to date precipitation 1.52 2.36  
Sea Level Pressure  
Sea Level Pressure 29.90 in    
Wind  
Wind Speed 9 mph (West)    
Max Wind Speed 22 mph    
Max Gust Speed 27 mph    
Visibility 5 miles    
Events Fog , Snow    
T = Trace of Precipitation, MM = Missing Value Source: NWS Daily Summary

Daily Weather History Graph

Daily Weather History Graph

Search for Another Location

Airport:

Trip Planner

Search our weather history database for the weather conditions in past years. The results will help you decide how hot, cold, wet, or windy it might be!

Date:

Astronomy

Mar. 18, 2014 Rise Set
Actual Time 7:16 AM MDT 7:20 PM MDT
Civil Twilight 6:49 AM MDT 7:47 PM MDT
Nautical Twilight 6:17 AM MDT 8:19 PM MDT
Astronomical Twilight 5:45 AM MDT 8:51 PM MDT
Moon 9:41 PM MDT (3/18) 8:07 AM MDT (3/18)
Length of Visible Light 12h 57m
Length of Day
12h 03m
Waning Gibbous, 96% of the Moon is Illuminated
Mar 18
Waning Gibbous
Mar 23
Last Quarter
Mar 30
New
Apr 7
First Quarter
Apr 15
Full

Hourly Weather History & Observations

Time (MDT) Temp. Windchill Dew Point Humidity Pressure Visibility Wind Dir Wind Speed Gust Speed Precip Events Conditions
12:22 AM 26.1 °F 14.0 °F 21.0 °F 81% 29.74 in 1.8 mi West 15.0 mph - 0.00 in Snow Light Snow
12:31 AM 26.1 °F 13.6 °F 21.9 °F 84% 29.75 in 1.0 mi West 16.1 mph - 0.00 in Snow Light Snow
12:35 AM 26.1 °F 14.0 °F 21.9 °F 84% 29.75 in 0.8 mi SW 15.0 mph - 0.00 in Snow Light Snow
12:42 AM 25.0 °F 13.1 °F 21.9 °F 88% 29.75 in 0.5 mi SW 13.8 mph - 0.00 in Fog , Snow Snow
12:53 AM 25.0 °F 13.6 °F 21.9 °F 88% 29.71 in 0.8 mi SW 12.7 mph - 0.00 in Snow Light Snow
1:25 AM 24.1 °F 12.0 °F 21.0 °F 88% 29.75 in 0.5 mi SW 13.8 mph - 0.00 in Fog , Snow Snow
1:53 AM 24.1 °F 11.0 °F 21.0 °F 88% 29.73 in 0.8 mi SW 16.1 mph - 0.00 in Snow Light Snow
2:41 AM 24.1 °F 10.1 °F 21.0 °F 88% 29.74 in 0.8 mi SW 18.4 mph - 0.00 in Snow Light Snow
2:48 AM 24.8 °F 10.7 °F 21.2 °F 86% 29.74 in 0.8 mi SW 19.6 mph - 0.00 in Snow Light Snow
2:53 AM 24.1 °F 10.1 °F 21.0 °F 88% 29.70 in 0.8 mi SW 18.4 mph - 0.00 in Snow Light Snow
3:02 AM 24.1 °F 10.1 °F 21.9 °F 91% 29.74 in 1.0 mi SW 18.4 mph - 0.00 in Snow Light Snow
3:20 AM 25.0 °F 11.3 °F 21.9 °F 88% 29.73 in 0.8 mi WSW 18.4 mph - 0.00 in Snow Light Snow
3:34 AM 25.0 °F 10.9 °F 21.9 °F 88% 29.73 in 1.0 mi WSW 19.6 mph - 0.00 in Snow Light Snow
3:53 AM 25.0 °F 10.9 °F 21.9 °F 88% 29.74 in 1.0 mi WSW 19.6 mph - 0.00 in Snow Light Snow
4:19 AM 25.0 °F 12.6 °F 23.0 °F 92% 29.75 in 0.8 mi WSW 15.0 mph - 0.00 in Snow Light Snow
4:38 AM 25.0 °F 12.2 °F 21.9 °F 88% 29.76 in 0.8 mi WSW 16.1 mph - 0.00 in Snow Light Snow
4:53 AM 25.0 °F 13.1 °F 23.0 °F 92% 29.79 in 0.8 mi West 13.8 mph - 0.00 in Snow Light Snow
4:57 AM 25.0 °F 12.2 °F 23.0 °F 92% 29.77 in 1.0 mi West 16.1 mph - 0.00 in Snow Light Snow
5:05 AM 25.0 °F 12.6 °F 21.9 °F 88% 29.78 in 1.2 mi West 15.0 mph - 0.00 in Snow Light Snow
5:17 AM 25.0 °F 12.6 °F 21.9 °F 88% 29.79 in 1.8 mi WSW 15.0 mph - 0.00 in Snow Light Snow
5:27 AM 25.0 °F 13.1 °F 21.9 °F 88% 29.79 in 2.5 mi WSW 13.8 mph - 0.00 in Snow Light Snow
5:35 AM 25.0 °F 13.6 °F 21.9 °F 88% 29.79 in 3.0 mi WSW 12.7 mph - 0.00 in Snow Light Snow
5:53 AM 24.1 °F 10.6 °F 21.0 °F 88% 29.86 in 4.0 mi WSW 17.3 mph - 0.00 in Snow Light Snow
6:00 AM 24.1 °F 12.0 °F 21.9 °F 91% 29.81 in 2.5 mi WSW 13.8 mph - 0.00 in Snow Light Snow
6:36 AM 24.1 °F 11.0 °F 21.0 °F 88% 29.82 in 1.5 mi WSW 16.1 mph - 0.00 in Snow Light Snow
6:44 AM 24.1 °F 12.0 °F 21.0 °F 88% 29.82 in 1.2 mi WSW 13.8 mph - 0.00 in Snow Light Snow
6:53 AM 24.1 °F 12.0 °F 21.9 °F 91% 29.90 in 1.2 mi WSW 13.8 mph - 0.00 in Snow Light Snow
7:04 AM 24.1 °F 12.5 °F 21.9 °F 91% 29.84 in 3.0 mi WSW 12.7 mph - 0.00 in Snow Light Snow
7:10 AM 24.1 °F 13.1 °F 21.9 °F 91% 29.84 in 2.5 mi West 11.5 mph - 0.00 in Snow Light Snow
7:31 AM 24.1 °F 14.4 °F 21.0 °F 88% 29.85 in 8.0 mi NNW 9.2 mph - 0.00 in   Overcast
7:36 AM 25.0 °F 13.1 °F 19.9 °F 81% 29.85 in 9.0 mi NNW 13.8 mph 17.3 mph 0.00 in   Overcast
7:53 AM 26.1 °F 15.6 °F 19.9 °F 78% 29.93 in 10.0 mi NW 11.5 mph - 0.00 in   Overcast
8:53 AM 26.1 °F 15.6 °F 21.0 °F 81% 29.97 in 8.0 mi WNW 11.5 mph - 0.00 in Snow Light Snow
9:53 AM 27.0 °F 16.1 °F 19.0 °F 72% 30.01 in 10.0 mi NNW 12.7 mph 18.4 mph 0.00 in   Overcast
10:53 AM 27.0 °F 14.7 °F 19.0 °F 72% 30.03 in 10.0 mi North 16.1 mph - N/A   Overcast
11:53 AM 30.0 °F 21.1 °F 19.0 °F 64% 30.04 in 10.0 mi NNW 10.4 mph - N/A   Mostly Cloudy
12:53 PM 33.1 °F 25.5 °F 18.0 °F 54% 30.05 in 10.0 mi North 9.2 mph - N/A   Scattered Clouds
1:53 PM 33.1 °F 27.7 °F 17.1 °F 52% 30.05 in 10.0 mi Variable 5.8 mph - N/A   Overcast
2:53 PM 33.1 °F 30.0 °F 15.1 °F 48% 30.05 in 10.0 mi NNW 3.5 mph - N/A   Partly Cloudy
3:53 PM 35.1 °F 31.0 °F 15.1 °F 44% 30.04 in 10.0 mi WSW 4.6 mph - N/A   Mostly Cloudy
4:53 PM 37.0 °F 32.4 °F 16.0 °F 42% 30.05 in 10.0 mi Variable 5.8 mph - N/A   Clear
5:53 PM 33.1 °F 26.1 °F 16.0 °F 50% 30.08 in 10.0 mi NW 8.1 mph - N/A   Partly Cloudy
6:53 PM 32.0 °F 27.5 °F 14.0 °F 48% 30.11 in 10.0 mi NNW 4.6 mph - N/A   Overcast
7:53 PM 27.0 °F 21.6 °F 18.0 °F 69% 30.14 in 10.0 mi SW 4.6 mph - N/A   Scattered Clouds
8:53 PM 26.1 °F 19.4 °F 18.0 °F 71% 30.17 in 10.0 mi SSW 5.8 mph - N/A   Mostly Cloudy
9:53 PM 24.1 °F - 16.0 °F 71% 30.18 in 10.0 mi Calm Calm - N/A   Mostly Cloudy
10:53 PM 21.9 °F 17.2 °F 17.1 °F 82% 30.20 in 10.0 mi WNW 3.5 mph - N/A   Partly Cloudy
11:53 PM 21.9 °F - 15.1 °F 75% 30.22 in 10.0 mi Calm Calm - N/A   Mostly Cloudy